[Iaude] MPEC T254: 2022 UV5 [a=1.01,e=0.16,i=9.8,H=25.67]

mpec at marsden.cfa.harvard.edu mpec at marsden.cfa.harvard.edu
Sun Oct 15 10:17:13 EDT 2023


M.P.E.C. 2023-T254                             Issued 2023 October 15, 14:15 UT

     The Minor Planet Electronic Circulars contain information on unusual
         minor planets, routine data on comets and natural satellites,
         and occasional editorial announcements.  They are published
    on behalf of Division F of the International Astronomical Union by the
          Minor Planet Center, Smithsonian Astrophysical Observatory,
                          Cambridge, MA 02138, U.S.A.
			  
             Prepared using the Tamkin Foundation Computer Network

                              MPC at CFA.HARVARD.EDU
            URL https://www.minorplanetcenter.net/    ISSN 1523-6714

                                    2022 UV5                                    


                           Revision to MPEC 2022-U179                           

Additional Observations:
     K22U05V 1C2023 10 10.16555 22 09 53.97 +20 27 46.0                VET254G96
     K22U05V 1C2023 10 10.17590 22 09 52.06 +20 26 40.9          21.9 GVET254G96
     K22U05V KC2023 10 14.15882122 00 41.190+12 54 33.70         21.34GVET254I52
     K22U05V KC2023 10 14.16642522 00 39.810+12 53 38.90         20.76GVET254I52
     K22U05V KC2023 10 14.17433922 00 38.620+12 52 40.70         21.86GVET254I52
     K22U05V KC2023 10 14.18193222 00 37.320+12 51 45.10         21.95GVET254I52
     K22U05V 0C2023 10 15.24125321 58 23.987+10 41 03.74         21.81GVET254T12
     K22U05V 0C2023 10 15.24266321 58 23.751+10 40 53.12         21.95GVET254T12
     K22U05V 0C2023 10 15.24431821 58 23.475+10 40 40.69         22.07GVET254T12
     K22U05V 0C2023 10 15.24569221 58 23.245+10 40 30.39         22.24GVET254T12

Observer details:
G96 Mt. Lemmon Survey.  Observer D. Rankin.  Measurers B. Gray, D. Rankin, F.
    C. Shelly.  1.5-m reflector + 10K CCD.
I52 Steward Observatory, Mt. Lemmon Station.  Observer J. K. Hogan.  Measurers
    E. C. Beshore, D. Fay, J. B. Fazekas, D. C. Fuls, A. R. Gibbs, A. D.
    Grauer, H. Groeller, J. K. Hogan, R. A. Kowalski, S. M. Larson, G. J.
    Leonard, D. Rankin, R. L. Seaman, F. C. Shelly, K. W. Wierzchos.  1.0-m
    prime focus + CCD.
T12 University of Hawaii 88-inch telescope, Maunakea.  Observer D. J. Tholen.
    2.24-m f/10.1 reflector + 2112 x 2112 pixels STA1600 10k CCD.

First and last observations above in comparison with prediction:
Residuals in seconds of arc (or two decimals in degrees), reference and Delta-T
231010 G96 0.54+ 0.38+    231015 T12 0.50+ 0.30+    E2023-P83   -0.05 days

Orbital elements:
2022 UV5                                                 Earth MOID = 0.0212 AU
Epoch 2023 Sept. 13.0 TT = JDT 2460200.5                Veres                   
M 232.57045              (2000.0)            P               Q                  
n   0.97082803     Peri.  284.20729     -0.66505278     -0.74254012             
a   1.0101236      Node   207.98710     +0.73377217     -0.62990579             
e   0.1633108      Incl.    9.76816     +0.13886397     -0.22771224             
P   1.02           H   25.67          G   0.15           U   3                  
Residuals in seconds of arc
221016 F51  0.1+  0.3-    221022 Y00  0.5+  0.9-    231014 I52  1.6-  0.5+
221016 F51  0.2-  0.5+    221022 Y00  0.2+  1.1-    231014 I52  0.5+  0.1+
221016 F51  0.1-  0.0     221022 H21  0.1-  0.4-    231014 I52  0.1+  0.1+
221016 F51  0.2+  0.5-    221022 H21  0.2-  0.4-    231015 T12  0.2+  0.1-
221021 F52  0.1-  0.3-    221022 H21  0.4-  0.4-    231015 T12  0.2+  0.1-
221021 F52  0.1+  0.4-    231010 G96  0.3+  0.0     231015 T12  0.2+  0.1-
221021 F52  0.0   0.9+    231010 G96  0.0   0.1-    231015 T12  0.3+  0.1-
221022 Y00  0.5+  0.5-    231014 I52  0.2-  0.2-

Ephemeris:
2022 UV5                 a,e,i = 1.01, 0.16, 10                  q = 0.8452
Date    TT    R. A. (2000) Decl.     Delta      r    Elong.  Phase     V
2023 09 15    23 15 54.0 +43 04 24   0.1591  1.1214   133.5    40.6    23.5
...
2023 09 30    22 36 42.3 +34 18 43   0.1131  1.0904   139.7    36.5    22.6
...
2023 10 08    22 15 16.6 +24 04 20   0.09438 1.0715   138.1    38.6    22.2
...
2023 10 14    22 01 01.9 +13 14 30   0.08449 1.0564   132.3    44.3    22.1
2023 10 15    21 58 52.8 +11 11 38   0.08325 1.0539   130.9    45.6    22.1
2023 10 16    21 56 48.0 +09 05 14   0.08214 1.0513   129.5    47.1    22.1
...
2023 10 22    21 45 47.5 -04 26 25   0.07818 1.0354   118.8    57.4    22.3
...
2023 10 30    21 34 24.1 -22 47 49   0.07982 1.0134   102.4    73.2    22.8
...
2023 11 14    21 14 34.6 -50 03 15   0.09813 0.9711    76.3    98.0    24.1

A. U. Tomatic                (C) Copyright 2023 MPC           M.P.E.C. 2023-T254





More information about the Iaude mailing list